Palacios, TX

5:57 PM CDT on August 22, 2017 (GMT -0500)
Palacios Municipal

Weather History for KPSX - October, 2012

Change the Weather History Date:

Thursday, October 4, 2012

  Actual Average Record
Temperature  
Mean Temperature 82 °F -  
Max Temperature 88 °F 85 °F 92 °F (1990)
Min Temperature 75 °F 66 °F 47 °F (1961)
Cooling Degree Days 16    
Growing Degree Days 32 (Base 50)    
Moisture  
Dew Point 72 °F    
Average Humidity 74    
Maximum Humidity 88    
Minimum Humidity 61    
Precipitation  
Precipitation 0.00 in - - ()
Sea Level Pressure  
Sea Level Pressure 30.08 in    
Wind  
Wind Speed 10 mph (SE)    
Max Wind Speed 17 mph    
Max Gust Speed 24 mph    
Visibility 10 miles    
Events      
Averages and records for this station are not official NWS values.
T = Trace of Precipitation, MM = Missing Value Source: NWS Daily Summary

Daily Weather History Graph

Daily Weather History Graph

Search for Another Location

Airport or City:

Trip Planner

Search our weather history database for the weather conditions in past years. The results will help you decide how hot, cold, wet, or windy it might be!

Date:

Astronomy

Oct. 04, 2012 Rise Set
Actual Time 7:19 AM CDT 7:06 PM CDT
Civil Twilight 6:56 AM CDT 7:30 PM CDT
Nautical Twilight 6:28 AM CDT 7:57 PM CDT
Astronomical Twilight 6:01 AM CDT 8:25 PM CDT
Moon 10:04 PM CDT (10/4) 11:16 AM CDT (10/4)
Length of Visible Light 12h 33m
Length of Day
11h 46m
Waning Gibbous, 82% of the Moon is Illuminated
Oct 4
Waning Gibbous
Oct 8
Last Quarter
Oct 15
New
Oct 21
First Quarter
Oct 29
Full

Hourly Weather History & Observations

Time (CDT) Temp. Heat Index Dew Point Humidity Pressure Visibility Wind Dir Wind Speed Gust Speed Precip Events Conditions
12:53 AM 75.0 °F - 68.0 °F 79% 30.04 in 10.0 mi SE 8.1 mph - N/A   Clear
1:53 AM 75.9 °F - 69.1 °F 79% 30.03 in 10.0 mi SSE 9.2 mph - N/A   Clear
2:53 AM 77.0 °F - 70.0 °F 79% 30.03 in 10.0 mi SSE 8.1 mph - N/A   Clear
3:53 AM 78.1 °F - 71.1 °F 79% 30.03 in 10.0 mi SSE 8.1 mph - N/A   Mostly Cloudy
4:53 AM 77.0 °F - 71.1 °F 82% 30.04 in 10.0 mi SSE 6.9 mph - N/A   Partly Cloudy
5:53 AM 77.0 °F - 72.0 °F 84% 30.06 in 10.0 mi SE 6.9 mph - N/A   Clear
6:53 AM 77.0 °F - 72.0 °F 84% 30.07 in 10.0 mi SE 6.9 mph - N/A   Partly Cloudy
7:53 AM 78.1 °F - 72.0 °F 81% 30.08 in 10.0 mi SE 9.2 mph - N/A   Mostly Cloudy
8:53 AM 82.0 °F 87.4 °F 73.0 °F 74% 30.09 in 10.0 mi SE 12.7 mph - N/A   Clear
9:53 AM 84.9 °F 91.4 °F 73.0 °F 67% 30.11 in 10.0 mi SSE 16.1 mph - N/A   Clear
11:53 AM 88.0 °F 95.6 °F 73.0 °F 61% 30.12 in 10.0 mi SSE 13.8 mph - N/A   Unknown
12:53 PM 88.0 °F 95.6 °F 73.0 °F 61% 30.11 in 10.0 mi SSE 17.3 mph - N/A   Partly Cloudy
1:34 PM 86.0 °F 93.4 °F 73.4 °F 66% 30.10 in 10.0 mi SSE 15.0 mph 24.2 mph N/A   Mostly Cloudy
1:53 PM 86.0 °F 93.0 °F 73.0 °F 65% 30.09 in 10.0 mi SSE 17.3 mph - N/A   Overcast
2:11 PM 87.8 °F 95.6 °F 73.4 °F 62% 30.09 in 10.0 mi SE 16.1 mph - N/A   Mostly Cloudy
2:32 PM 86.0 °F 93.4 °F 73.4 °F 66% 30.09 in 10.0 mi SSE 15.0 mph - N/A   Mostly Cloudy
2:53 PM 87.1 °F 94.5 °F 73.0 °F 63% 30.09 in 10.0 mi SE 13.8 mph - N/A   Overcast
3:08 PM 87.8 °F 95.6 °F 73.4 °F 62% 30.09 in 10.0 mi SSE 15.0 mph - N/A   Mostly Cloudy
3:53 PM 86.0 °F 93.0 °F 73.0 °F 65% 30.09 in 10.0 mi SSE 15.0 mph - N/A   Mostly Cloudy
4:27 PM 87.8 °F 95.6 °F 73.4 °F 62% 30.08 in 10.0 mi SSE 13.8 mph - N/A   Mostly Cloudy
4:53 PM 84.2 °F 90.9 °F 73.4 °F 70% 30.08 in 10.0 mi SE 12.7 mph - N/A   Mostly Cloudy
5:53 PM 84.0 °F 89.6 °F 72.0 °F 67% 30.09 in 10.0 mi SSE 13.8 mph - N/A   Scattered Clouds
6:53 PM 82.0 °F 86.7 °F 72.0 °F 71% 30.10 in 10.0 mi SE 8.1 mph - N/A   Partly Cloudy
7:53 PM 79.0 °F - 73.0 °F 82% 30.10 in 10.0 mi SE 4.6 mph - N/A   Scattered Clouds
8:53 PM 78.1 °F - 73.0 °F 84% 30.11 in 10.0 mi SE 5.8 mph - N/A   Partly Cloudy
9:31 PM 78.8 °F - 73.4 °F 83% 30.11 in 10.0 mi SE 8.1 mph - N/A   Mostly Cloudy
9:39 PM 78.8 °F - 73.4 °F 83% 30.11 in 10.0 mi SE 6.9 mph - N/A   Scattered Clouds
9:53 PM 78.1 °F - 73.0 °F 84% 30.11 in 10.0 mi SE 6.9 mph - N/A   Partly Cloudy
10:53 PM 77.0 °F - 73.0 °F 88% 30.10 in 10.0 mi SSE 6.9 mph - N/A   Clear
11:53 PM 77.0 °F - 73.0 °F 88% 30.10 in 10.0 mi SSE 8.1 mph - N/A   Clear